Location: Unspecified
(50.7693°N, 0.0000°E)
Time: 14:24:02
(UTC+00:00)

Transit 2A - Pass Details

Date: 03 July 2019
Orbit: 594 x 965 km, 66.7° (Epoch: 16 July)

Event Time Altitude Azimuth Distance (km) Brightness Sun altitude
Rises 04:35:12 0° 321° (NW) 3,507 9.3 4.7°
Reaches altitude 10° 04:38:04 10° 331° (NNW) 2,509 8.7 5.1°
Maximum altitude 04:43:16 33° 34° (NE) 1,324 8.3 5.8°
Drops below altitude 10° 04:47:59 10° 99° (E) 2,271 9.4 6.5°
Sets 04:50:27 0° 109° (ESE) 3,129 9.9 6.8°
